| time (UTC) | temp F | wind direction | speed MPH | gust MPH | rain 1hr in | rain 24hr in | rain mn in | humidity % | barometer mb |
| 20260509045003 | 68 | 337 | 6.0 | 8.0 | 0.00 | 0.09 | 0.09 | 100 | 1012.4 |
| 20260509044506 | 68 | 315 | 7.0 | 9.0 | 0.00 | 0.09 | 0.09 | 100 | 1012.4 |
| 20260509044003 | 68 | 337 | 7.0 | 9.0 | 0.00 | 0.09 | 0.09 | 100 | 1012.4 |
| 20260509043506 | 68 | 337 | 14.0 | 20.0 | 0.00 | 0.09 | 0.09 | 100 | 1011.4 |
| 20260509043003 | 68 | 337 | 13.0 | 18.0 | 0.00 | 0.09 | 0.09 | 100 | 1011.4 |
| 20260509042506 | 69 | 337 | 1.0 | 5.0 | 0.00 | 0.09 | 0.09 | 100 | 1010.7 |
| 20260509042008 | 69 | 135 | 4.0 | 5.0 | 0.00 | 0.09 | 0.09 | 99 | 1010.7 |
| 20260509041503 | 69 | 67 | 6.0 | 7.0 | 0.00 | 0.09 | 0.09 | 99 | 1010.4 |
| 20260509041006 | 70 | 67 | 6.0 | 6.0 | 0.00 | 0.09 | 0.09 | 100 | 1010.4 |
| 20260509040503 | 70 | 135 | 4.0 | 6.0 | 0.00 | 0.09 | 0.09 | 99 | 1010.0 |
| 20260509040006 | 70 | 157 | 6.0 | 9.0 | 0.00 | 0.09 | 0.09 | 99 | 1010.0 |
| 20260509035503 | 70 | 157 | 8.0 | 11.0 | 0.00 | 0.09 | 0.09 | 99 | 1009.7 |
| 20260509034505 | 70 | 157 | 9.0 | 11.0 | 0.00 | 0.09 | 0.09 | 99 | 1009.7 |
| 20260509034028 | 70 | 157 | 9.0 | 13.0 | 0.00 | 0.09 | 0.09 | 99 | 1009.7 |
| 20260509033006 | 70 | 157 | 8.0 | 9.0 | 0.00 | 0.09 | 0.09 | 99 | 1009.7 |
| 20260509032507 | 70 | 157 | 8.0 | 8.0 | 0.00 | 0.09 | 0.09 | 98 | 1009.7 |
| 20260509032004 | 70 | 157 | 4.0 | 6.0 | 0.00 | 0.09 | 0.09 | 98 | 1009.7 |
| 20260509031507 | 70 | 112 | 8.0 | 12.0 | 0.00 | 0.09 | 0.09 | 98 | 1010.0 |
| 20260509031004 | 70 | 112 | 9.0 | 11.0 | 0.00 | 0.09 | 0.09 | 97 | 1010.0 |
| 20260509030008 | 70 | 67 | 8.0 | 11.0 | 0.00 | 0.09 | 0.09 | 97 | 1010.4 |
| 20260509025505 | 70 | 67 | 8.0 | 10.0 | 0.00 | 0.09 | 0.09 | 99 | 1010.4 |
| 20260509024503 | 70 | 22 | 8.0 | 10.0 | 0.00 | 0.09 | 0.09 | 99 | 1010.0 |
| 20260509024006 | 69 | 22 | 9.0 | 10.0 | 0.00 | 0.09 | 0.09 | 98 | 1010.0 |
| 20260509023504 | 69 | 22 | 7.0 | 10.0 | 0.00 | 0.09 | 0.09 | 98 | 1009.4 |
| 20260509023004 | 69 | 45 | 6.0 | 8.0 | 0.00 | 0.09 | 0.09 | 98 | 1009.4 |
| 20260509022507 | 69 | 112 | 4.0 | 6.0 | 0.00 | 0.09 | 0.09 | 97 | 1008.7 |
| 20260509022004 | 69 | 135 | 6.0 | 9.0 | 0.00 | 0.09 | 0.09 | 96 | 1008.7 |
| 20260509021507 | 70 | 157 | 5.0 | 8.0 | 0.00 | 0.09 | 0.09 | 97 | 1008.3 |
| 20260509021004 | 70 | 157 | 6.0 | 9.0 | 0.00 | 0.09 | 0.09 | 96 | 1008.3 |
| 20260509020507 | 70 | 135 | 6.0 | 9.0 | 0.00 | 0.09 | 0.09 | 96 | 1008.0 |
| 20260509020005 | 70 | 157 | 10.0 | 12.0 | 0.00 | 0.09 | 0.09 | 96 | 1008.0 |
| 20260509015507 | 71 | 135 | 7.0 | 10.0 | 0.00 | 0.09 | 0.09 | 95 | 1008.0 |
| 20260509015004 | 71 | 157 | 8.0 | 10.0 | 0.00 | 0.09 | 0.09 | 94 | 1008.0 |
| 20260509014507 | 71 | 157 | 10.0 | 13.0 | 0.00 | 0.09 | 0.09 | 94 | 1008.0 |
| 20260509014005 | 71 | 157 | 10.0 | 14.0 | 0.00 | 0.09 | 0.09 | 92 | 1008.0 |
| 20260509013527 | 71 | 157 | 9.0 | 11.0 | 0.00 | 0.09 | 0.09 | 92 | 1007.7 |
| 20260509013004 | 71 | 157 | 9.0 | 10.0 | 0.00 | 0.09 | 0.09 | 91 | 1007.7 |
| 20260509012507 | 72 | 180 | 11.0 | 12.0 | 0.00 | 0.09 | 0.09 | 90 | 1007.7 |
| 20260509012004 | 72 | 157 | 12.0 | 14.0 | 0.00 | 0.09 | 0.09 | 89 | 1007.7 |
| 20260509011507 | 72 | 157 | 10.0 | 13.0 | 0.00 | 0.09 | 0.09 | 88 | 1008.0 |
| 20260509011004 | 73 | 157 | 10.0 | 12.0 | 0.00 | 0.09 | 0.09 | 87 | 1008.0 |
| 20260509010507 | 73 | 157 | 11.0 | 12.0 | 0.00 | 0.09 | 0.09 | 86 | 1008.0 |
| 20260509010006 | 73 | 157 | 9.0 | 11.0 | 0.00 | 0.09 | 0.09 | 86 | 1008.0 |
| 20260509005004 | 73 | 180 | 10.0 | 12.0 | 0.00 | 0.09 | 0.09 | 85 | 1007.7 |
| 20260509004507 | 73 | 157 | 10.0 | 12.0 | 0.00 | 0.09 | 0.09 | 84 | 1007.7 |
| 20260509004004 | 73 | 157 | 9.0 | 11.0 | 0.00 | 0.09 | 0.09 | 84 | 1007.7 |
| 20260509003507 | 73 | 180 | 10.0 | 13.0 | 0.00 | 0.09 | 0.09 | 83 | 1007.3 |
| 20260509003004 | 73 | 157 | 11.0 | 15.0 | 0.00 | 0.09 | 0.09 | 82 | 1007.3 |
| 20260509002507 | 74 | 157 | 13.0 | 17.0 | 0.00 | 0.09 | 0.09 | 82 | 1007.3 |
| 20260509002004 | 74 | 180 | 13.0 | 16.0 | 0.00 | 0.09 | 0.09 | 81 | 1007.3 |
| 20260509000504 | 75 | 180 | 13.0 | 18.0 | 0.00 | 0.09 | 0.09 | 78 | 1006.6 |
| 20260509000007 | 75 | 180 | 14.0 | 17.0 | 0.00 | 0.09 | 0.09 | 76 | 1006.6 |
| 20260508235504 | 75 | 157 | 11.0 | 14.0 | 0.00 | 0.09 | 0.09 | 76 | 1007.0 |
| 20260508235007 | 76 | 157 | 13.0 | 16.0 | 0.00 | 0.09 | 0.09 | 75 | 1007.0 |
| 20260508234504 | 76 | 157 | 9.0 | 13.0 | 0.00 | 0.09 | 0.09 | 74 | 1006.6 |
| 20260508234007 | 76 | 157 | 14.0 | 17.0 | 0.00 | 0.09 | 0.09 | 73 | 1006.6 |
| 20260508233504 | 76 | 180 | 11.0 | 14.0 | 0.00 | 0.09 | 0.09 | 72 | 1007.0 |
| 20260508232505 | 77 | 157 | 10.0 | 12.0 | 0.00 | 0.09 | 0.09 | 69 | 1007.0 |
| 20260508232008 | 76 | 157 | 8.0 | 10.0 | 0.00 | 0.09 | 0.09 | 69 | 1007.0 |
| 20260508231505 | 76 | 180 | 11.0 | 13.0 | 0.00 | 0.09 | 0.09 | 69 | 1006.6 |
| 20260508231008 | 76 | 157 | 14.0 | 18.0 | 0.00 | 0.09 | 0.09 | 69 | 1006.6 |
| 20260508230505 | 77 | 180 | 14.0 | 17.0 | 0.00 | 0.09 | 0.09 | 67 | 1006.6 |
| 20260508230008 | 77 | 157 | 13.0 | 16.0 | 0.00 | 0.09 | 0.09 | 67 | 1006.6 |
| 20260508225505 | 77 | 157 | 10.0 | 14.0 | 0.00 | 0.09 | 0.09 | 67 | 1006.3 |
| 20260508224509 | 77 | 135 | 9.0 | 12.0 | 0.00 | 0.09 | 0.09 | 67 | 1006.6 |
| 20260508224006 | 77 | 157 | 10.0 | 16.0 | 0.00 | 0.09 | 0.09 | 69 | 1006.6 |
| 20260508223503 | 77 | 180 | 12.0 | 18.0 | 0.00 | 0.09 | 0.09 | 67 | 1007.0 |
| 20260508223006 | 77 | 157 | 13.0 | 16.0 | 0.00 | 0.09 | 0.09 | 67 | 1007.0 |
| 20260508222503 | 77 | 157 | 7.0 | 12.0 | 0.00 | 0.09 | 0.09 | 69 | 1006.6 |
| 20260508222006 | 77 | 180 | 12.0 | 15.0 | 0.00 | 0.09 | 0.09 | 68 | 1006.6 |
| 20260508221503 | 78 | 157 | 11.0 | 14.0 | 0.00 | 0.09 | 0.09 | 68 | 1006.6 |
| 20260508221006 | 78 | 202 | 10.0 | 11.0 | 0.00 | 0.09 | 0.09 | 67 | 1006.6 |
| 20260508220511 | 78 | 157 | 11.0 | 14.0 | 0.00 | 0.09 | 0.09 | 67 | 1006.6 |
| 20260508220006 | 78 | 157 | 12.0 | 14.0 | 0.00 | 0.09 | 0.09 | 66 | 1006.6 |
| 20260508215511 | 78 | 157 | 13.0 | 17.0 | 0.00 | 0.09 | 0.09 | 66 | 1006.6 |
| 20260508215006 | 78 | 157 | 6.0 | 12.0 | 0.00 | 0.09 | 0.09 | 67 | 1006.6 |
| 20260508214509 | 78 | 157 | 12.0 | 15.0 | 0.00 | 0.09 | 0.09 | 66 | 1007.0 |
| 20260508214006 | 78 | 157 | 11.0 | 13.0 | 0.00 | 0.09 | 0.09 | 66 | 1007.0 |
| 20260508213004 | 77 | 157 | 9.0 | 10.0 | 0.00 | 0.09 | 0.09 | 66 | 1007.0 |
| 20260508212527 | 78 | 180 | 10.0 | 13.0 | 0.00 | 0.09 | 0.09 | 65 | 1007.0 |
| 20260508212011 | 78 | 157 | 10.0 | 12.0 | 0.00 | 0.09 | 0.09 | 67 | 1007.0 |
| 20260508211007 | 77 | 180 | 12.0 | 14.0 | 0.00 | 0.09 | 0.09 | 66 | 1007.0 |
| 20260508210504 | 77 | 180 | 7.0 | 8.0 | 0.00 | 0.09 | 0.09 | 66 | 1007.0 |
| 20260508210007 | 77 | 157 | 10.0 | 13.0 | 0.00 | 0.09 | 0.09 | 66 | 1007.0 |
| 20260508205504 | 76 | 157 | 11.0 | 17.0 | 0.00 | 0.09 | 0.09 | 67 | 1007.7 |
| 20260508205007 | 76 | 157 | 12.0 | 15.0 | 0.00 | 0.09 | 0.09 | 66 | 1007.7 |
| 20260508204005 | 76 | 157 | 13.0 | 16.0 | 0.00 | 0.09 | 0.09 | 69 | 1008.3 |
| 20260508203009 | 76 | 157 | 15.0 | 19.0 | 0.00 | 0.09 | 0.09 | 67 | 1008.3 |
| 20260508202507 | 76 | 180 | 14.0 | 18.0 | 0.00 | 0.09 | 0.09 | 66 | 1009.0 |
| 20260508202003 | 75 | 180 | 14.0 | 18.0 | 0.00 | 0.09 | 0.09 | 70 | 1009.0 |
| 20260508201506 | 75 | 180 | 14.0 | 17.0 | 0.00 | 0.09 | 0.09 | 70 | 1008.7 |
| 20260508201003 | 75 | 157 | 16.0 | 20.0 | 0.00 | 0.09 | 0.09 | 67 | 1008.7 |
| 20260508200506 | 76 | 180 | 15.0 | 17.0 | 0.00 | 0.09 | 0.09 | 69 | 1008.7 |
| 20260508200003 | 77 | 225 | 14.0 | 19.0 | 0.00 | 0.09 | 0.09 | 67 | 1008.7 |
| 20260508195503 | 77 | 157 | 13.0 | 18.0 | 0.00 | 0.09 | 0.09 | 66 | 1009.0 |
| 20260508195006 | 77 | 157 | 9.0 | 14.0 | 0.00 | 0.09 | 0.09 | 67 | 1009.0 |
| 20260508194508 | 76 | 180 | 12.0 | 16.0 | 0.00 | 0.09 | 0.09 | 69 | 1009.0 |
| 20260508194005 | 76 | 157 | 14.0 | 18.0 | 0.00 | 0.09 | 0.09 | 68 | 1009.0 |
| 20260508193007 | 76 | 180 | 10.0 | 14.0 | 0.00 | 0.09 | 0.09 | 67 | 1009.0 |
| 20260508192031 | 76 | 202 | 12.0 | 14.0 | 0.00 | 0.09 | 0.09 | 68 | 1009.0 |
| 20260508191508 | 76 | 202 | 13.0 | 15.0 | 0.00 | 0.09 | 0.09 | 67 | 1009.0 |
| 20260508191005 | 76 | 180 | 8.0 | 10.0 | 0.00 | 0.09 | 0.09 | 68 | 1009.0 |
| 20260508190508 | 76 | 180 | 12.0 | 15.0 | 0.00 | 0.09 | 0.09 | 68 | 1009.0 |
| 20260508190005 | 76 | 180 | 8.0 | 10.0 | 0.00 | 0.09 | 0.09 | 69 | 1009.0 |
| 20260508185508 | 76 | 157 | 11.0 | 13.0 | 0.00 | 0.09 | 0.09 | 69 | 1009.7 |
| 20260508185005 | 75 | 180 | 10.0 | 11.0 | 0.00 | 0.09 | 0.09 | 70 | 1009.7 |
| 20260508184508 | 75 | 202 | 9.0 | 10.0 | 0.00 | 0.09 | 0.09 | 70 | 1009.7 |
| 20260508184005 | 75 | 157 | 11.0 | 14.0 | 0.00 | 0.09 | 0.09 | 70 | 1009.7 |
| 20260508183508 | 74 | 202 | 12.0 | 15.0 | 0.00 | 0.09 | 0.09 | 71 | 1009.7 |
| 20260508183005 | 75 | 180 | 13.0 | 16.0 | 0.00 | 0.09 | 0.09 | 71 | 1009.7 |
| 20260508182508 | 75 | 180 | 10.0 | 14.0 | 0.00 | 0.09 | 0.09 | 70 | 1010.0 |
| 20260508181506 | 75 | 202 | 4.0 | 9.0 | 0.00 | 0.09 | 0.09 | 69 | 1010.4 |
| 20260508181003 | 74 | 202 | 11.0 | 17.0 | 0.00 | 0.09 | 0.09 | 71 | 1010.4 |
| 20260508180007 | 73 | 157 | 8.0 | 11.0 | 0.00 | 0.09 | 0.09 | 73 | 1010.4 |
| 20260508175005 | 73 | 180 | 9.0 | 11.0 | 0.00 | 0.09 | 0.09 | 75 | 1010.7 |
| 20260508174508 | 73 | 180 | 10.0 | 13.0 | 0.00 | 0.09 | 0.09 | 73 | 1011.0 |
| 20260508174005 | 73 | 202 | 7.0 | 10.0 | 0.00 | 0.09 | 0.09 | 73 | 1011.0 |
| 20260508173508 | 73 | 157 | 11.0 | 13.0 | 0.00 | 0.09 | 0.09 | 72 | 1011.0 |
| 20260508173005 | 73 | 180 | 7.0 | 10.0 | 0.00 | 0.09 | 0.09 | 71 | 1011.0 |
| 20260508172508 | 73 | 180 | 8.0 | 10.0 | 0.00 | 0.09 | 0.09 | 75 | 1011.4 |
| 20260508172005 | 73 | 157 | 6.0 | 9.0 | 0.00 | 0.09 | 0.09 | 72 | 1011.4 |
| 20260508171003 | 72 | 90 | 10.0 | 12.0 | 0.00 | 0.09 | 0.09 | 73 | 1011.7 |
| 20260508170506 | 72 | 157 | 9.0 | 11.0 | 0.00 | 0.09 | 0.09 | 74 | 1011.7 |
| 20260508170004 | 72 | 157 | 8.0 | 10.0 | 0.00 | 0.09 | 0.09 | 74 | 1011.7 |
| 20260508165506 | 71 | 157 | 7.0 | 9.0 | 0.00 | 0.09 | 0.09 | 75 | 1012.4 |
| 20260508165004 | 70 | 112 | 9.0 | 12.0 | 0.00 | 0.09 | 0.09 | 78 | 1012.4 |
| 20260508164506 | 70 | 112 | 6.0 | 8.0 | 0.00 | 0.09 | 0.09 | 78 | 1013.1 |
| 20260508164011 | 69 | 180 | 7.0 | 12.0 | 0.00 | 0.09 | 0.09 | 79 | 1013.1 |
| 20260508163007 | 70 | 112 | 7.0 | 8.0 | 0.00 | 0.09 | 0.09 | 76 | 1012.7 |
| 20260508162504 | 70 | 135 | 8.0 | 11.0 | 0.00 | 0.09 | 0.09 | 75 | 1013.1 |
| 20260508162007 | 69 | 157 | 10.0 | 13.0 | 0.00 | 0.09 | 0.09 | 77 | 1013.1 |
| 20260508161512 | 69 | 157 | 7.0 | 9.0 | 0.00 | 0.09 | 0.09 | 82 | 1013.4 |
| 20260508161008 | 68 | 157 | 10.0 | 13.0 | 0.00 | 0.09 | 0.09 | 79 | 1013.4 |
| 20260508160006 | 68 | 157 | 11.0 | 15.0 | 0.00 | 0.09 | 0.09 | 75 | 1013.8 |
| 20260508155505 | 68 | 157 | 10.0 | 14.0 | 0.00 | 0.09 | 0.09 | 76 | 1013.8 |
| 20260508155010 | 67 | 157 | 12.0 | 14.0 | 0.00 | 0.09 | 0.09 | 78 | 1013.8 |
| 20260508154505 | 68 | 180 | 12.0 | 15.0 | 0.00 | 0.09 | 0.09 | 75 | 1013.8 |
| 20260508154008 | 68 | 180 | 11.0 | 13.0 | 0.00 | 0.09 | 0.09 | 74 | 1013.8 |
| 20260508153505 | 68 | 180 | 10.0 | 11.0 | 0.00 | 0.09 | 0.09 | 77 | 1010.4 |
| 20260508153008 | 67 | 180 | 10.0 | 12.0 | 0.00 | 0.09 | 0.09 | 77 | 1010.4 |
| 20260508152505 | 67 | 157 | 6.0 | 10.0 | 0.00 | 0.09 | 0.09 | 81 | 1014.1 |
| 20260508152005 | 67 | 180 | 11.0 | 14.0 | 0.00 | 0.09 | 0.09 | 78 | 1014.1 |
| 20260508151507 | 68 | 157 | 11.0 | 13.0 | 0.00 | 0.09 | 0.09 | 83 | 1014.4 |
| 20260508151004 | 67 | 157 | 9.0 | 12.0 | 0.00 | 0.09 | 0.09 | 85 | 1014.4 |
| 20260508150008 | 67 | 112 | 7.0 | 10.0 | 0.00 | 0.09 | 0.09 | 86 | 1014.4 |
| 20260508145505 | 67 | 157 | 8.0 | 10.0 | 0.00 | 0.09 | 0.09 | 87 | 1014.4 |
| 20260508145008 | 67 | 157 | 9.0 | 12.0 | 0.00 | 0.09 | 0.09 | 88 | 1014.4 |
| 20260508144008 | 66 | 157 | 8.0 | 10.0 | 0.00 | 0.09 | 0.09 | 90 | 1014.4 |
| 20260508143006 | 65 | 157 | 8.0 | 10.0 | 0.00 | 0.09 | 0.09 | 97 | 1015.1 |
| 20260508142511 | 64 | 157 | 7.0 | 9.0 | 0.00 | 0.09 | 0.09 | 98 | 1015.4 |
| 20260508141507 | 64 | 157 | 7.0 | 10.0 | 0.00 | 0.09 | 0.09 | 98 | 1015.8 |
| 20260508141012 | 63 | 157 | 6.0 | 9.0 | 0.00 | 0.09 | 0.09 | 98 | 1015.8 |
| 20260508140508 | 63 | 157 | 7.0 | 8.0 | 0.00 | 0.09 | 0.09 | 99 | 1015.8 |
| 20260508135506 | 63 | 112 | 5.0 | 6.0 | 0.00 | 0.09 | 0.09 | 100 | 1015.8 |
| 20260508135011 | 64 | 180 | 6.0 | 7.0 | 0.00 | 0.09 | 0.09 | 100 | 1015.8 |
| 20260508134506 | 63 | 135 | 5.0 | 7.0 | 0.00 | 0.09 | 0.09 | 100 | 1015.8 |
| 20260508134011 | 63 | 157 | 2.0 | 4.0 | 0.00 | 0.09 | 0.09 | 100 | 1015.8 |
| 20260508133506 | 62 | 112 | 3.0 | 4.0 | 0.00 | 0.09 | 0.09 | 100 | 1015.8 |
| 20260508133004 | 62 | 112 | 5.0 | 6.0 | 0.00 | 0.09 | 0.09 | 100 | 1015.8 |
| 20260508132507 | 62 | 135 | 4.0 | 6.0 | 0.00 | 0.09 | 0.09 | 100 | 1016.1 |
| 20260508132004 | 62 | 112 | 4.0 | 6.0 | 0.00 | 0.09 | 0.09 | 100 | 1016.1 |
| 20260508131507 | 61 | 157 | 4.0 | 6.0 | 0.00 | 0.09 | 0.09 | 100 | 1016.1 |
| 20260508131005 | 61 | 157 | 5.0 | 7.0 | 0.00 | 0.09 | 0.09 | 100 | 1016.1 |
| 20260508130533 | 61 | 180 | 4.0 | 5.0 | 0.00 | 0.09 | 0.09 | 100 | 1016.1 |
| 20260508125006 | 60 | 135 | 4.0 | 6.0 | 0.00 | 0.09 | 0.09 | 100 | 1016.5 |
| 20260508124508 | 60 | 157 | 6.0 | 7.0 | 0.00 | 0.09 | 0.09 | 100 | 1016.5 |
| 20260508124004 | 60 | 157 | 7.0 | 10.0 | 0.00 | 0.09 | 0.09 | 100 | 1016.5 |
| 20260508123507 | 60 | 157 | 8.0 | 9.0 | 0.00 | 0.09 | 0.09 | 100 | 1016.5 |
| 20260508123003 | 60 | 157 | 6.0 | 7.0 | 0.00 | 0.09 | 0.09 | 100 | 1016.5 |
| 20260508122506 | 60 | 112 | 6.0 | 7.0 | 0.00 | 0.09 | 0.09 | 100 | 1016.5 |
| 20260508122003 | 59 | 157 | 3.0 | 4.0 | 0.00 | 0.09 | 0.09 | 100 | 1016.5 |
| 20260508121507 | 59 | 180 | 2.0 | 4.0 | 0.00 | 0.09 | 0.09 | 100 | 1016.5 |
| 20260508121011 | 59 | 157 | 4.0 | 7.0 | 0.00 | 0.09 | 0.09 | 100 | 1016.5 |
| 20260508120506 | 59 | 157 | 7.0 | 11.0 | 0.00 | 0.09 | 0.09 | 100 | 1017.1 |
| 20260508120009 | 59 | 157 | 8.0 | 9.0 | 0.00 | 0.09 | 0.09 | 100 | 1017.1 |
| 20260508115506 | 59 | 225 | 0.0 | 0.0 | 0.00 | 0.09 | 0.09 | 100 | 1017.1 |
| 20260508115009 | 59 | 202 | 0.0 | 1.0 | 0.00 | 0.09 | 0.09 | 100 | 1017.1 |
| 20260508114506 | 59 | 157 | 4.0 | 5.0 | 0.00 | 0.09 | 0.09 | 100 | 1016.8 |
| 20260508113504 | 59 | 202 | 3.0 | 4.0 | 0.00 | 0.09 | 0.09 | 100 | 1016.8 |
| 20260508112508 | 59 | 157 | 6.0 | 7.0 | 0.00 | 0.09 | 0.09 | 100 | 1016.5 |
| 20260508112005 | 59 | 202 | 4.0 | 5.0 | 0.00 | 0.09 | 0.09 | 100 | 1016.5 |
| 20260508111508 | 59 | 157 | 5.0 | 7.0 | 0.00 | 0.09 | 0.09 | 100 | 1016.1 |
| 20260508111005 | 59 | 157 | 6.0 | 8.0 | 0.00 | 0.09 | 0.09 | 100 | 1016.1 |
| 20260508110508 | 59 | 135 | 9.0 | 12.0 | 0.00 | 0.09 | 0.09 | 100 | 1016.1 |
| 20260508110031 | 60 | 202 | 8.0 | 10.0 | 0.00 | 0.06 | 0.06 | 100 | 1016.1 |
| 20260508105508 | 60 | 180 | 10.0 | 11.0 | 0.00 | 0.01 | 0.01 | 100 | 1015.8 |
| 20260508105005 | 60 | 180 | 9.0 | 10.0 | 0.00 | 0.00 | 0.00 | 100 | 1015.8 |
| 20260508104508 | 60 | 157 | 4.0 | 5.0 | 0.00 | 0.00 | 0.00 | 100 | 1015.8 |
| 20260508104005 | 60 | 135 | 4.0 | 5.0 | 0.00 | 0.00 | 0.00 | 100 | 1015.8 |
| 20260508103508 | 60 | 157 | 3.0 | 4.0 | 0.00 | 0.00 | 0.00 | 100 | 1016.1 |
| 20260508103005 | 60 | 157 | 8.0 | 10.0 | 0.00 | 0.00 | 0.00 | 100 | 1016.1 |
| 20260508102504 | 60 | 180 | 10.0 | 11.0 | 0.00 | 0.00 | 0.00 | 100 | 1016.1 |
| 20260508102007 | 60 | 157 | 11.0 | 14.0 | 0.00 | 0.00 | 0.00 | 99 | 1016.1 |
| 20260508101505 | 60 | 202 | 4.0 | 4.0 | 0.00 | 0.00 | 0.00 | 99 | 1015.8 |
| 20260508101008 | 60 | 202 | 0.0 | 3.0 | 0.00 | 0.00 | 0.00 | 99 | 1015.8 |
| 20260508100505 | 60 | 112 | 4.0 | 5.0 | 0.00 | 0.00 | 0.00 | 99 | 1016.5 |
| 20260508100008 | 60 | 202 | 3.0 | 4.0 | 0.00 | 0.00 | 0.00 | 99 | 1016.5 |
| 20260508095505 | 60 | 270 | 6.0 | 6.0 | 0.00 | 0.00 | 0.00 | 99 | 1015.8 |
| 20260508095003 | 60 | 292 | 4.0 | 5.0 | 0.00 | 0.00 | 0.00 | 98 | 1015.8 |
| 20260508094506 | 60 | 337 | 0.0 | 1.0 | 0.00 | 0.00 | 0.00 | 99 | 1015.8 |
| 20260508094003 | 60 | 337 | 0.0 | 1.0 | 0.00 | 0.00 | 0.00 | 98 | 1015.8 |
| 20260508093506 | 60 | 337 | 0.0 | 1.0 | 0.00 | 0.00 | 0.00 | 98 | 1015.8 |
| 20260508093003 | 60 | 337 | 3.0 | 4.0 | 0.00 | 0.00 | 0.00 | 97 | 1015.8 |
| 20260508092506 | 60 | 202 | 2.0 | 3.0 | 0.00 | 0.00 | 0.00 | 97 | 1015.4 |
| 20260508092003 | 60 | 157 | 4.0 | 6.0 | 0.00 | 0.00 | 0.00 | 96 | 1015.4 |
| 20260508091007 | 60 | 157 | 3.0 | 4.0 | 0.00 | 0.00 | 0.00 | 95 | 1015.8 |
| 20260508090505 | 60 | 180 | 5.0 | 6.0 | 0.00 | 0.00 | 0.00 | 96 | 1015.8 |
| 20260508090008 | 60 | 180 | 6.0 | 7.0 | 0.00 | 0.00 | 0.00 | 95 | 1015.8 |
| 20260508085531 | 60 | 157 | 6.0 | 7.0 | 0.00 | 0.00 | 0.00 | 95 | 1015.8 |
| 20260508085007 | 60 | 157 | 6.0 | 7.0 | 0.00 | 0.00 | 0.00 | 95 | 1015.8 |
| 20260508084504 | 60 | 202 | 5.0 | 7.0 | 0.00 | 0.00 | 0.00 | 95 | 1016.1 |
| 20260508084007 | 60 | 180 | 4.0 | 5.0 | 0.00 | 0.00 | 0.00 | 95 | 1016.1 |
| 20260508083504 | 60 | 202 | 4.0 | 5.0 | 0.00 | 0.00 | 0.00 | 95 | 1016.1 |
| 20260508083006 | 60 | 180 | 4.0 | 5.0 | 0.00 | 0.00 | 0.00 | 94 | 1016.1 |
| 20260508082511 | 60 | 157 | 6.0 | 6.0 | 0.00 | 0.00 | 0.00 | 95 | 1016.1 |
| 20260508082006 | 60 | 157 | 4.0 | 5.0 | 0.00 | 0.00 | 0.00 | 94 | 1016.1 |
| 20260508081509 | 60 | 202 | 4.0 | 5.0 | 0.00 | 0.00 | 0.00 | 94 | 1016.1 |
| 20260508081006 | 60 | 157 | 7.0 | 8.0 | 0.00 | 0.00 | 0.00 | 94 | 1016.1 |
| 20260508080503 | 60 | 112 | 5.0 | 6.0 | 0.00 | 0.00 | 0.00 | 94 | 1016.5 |
| 20260508080004 | 60 | 135 | 5.0 | 7.0 | 0.00 | 0.00 | 0.00 | 95 | 1016.5 |
| 20260508075507 | 60 | 180 | 6.0 | 8.0 | 0.00 | 0.00 | 0.00 | 96 | 1016.8 |
| 20260508075004 | 60 | 202 | 6.0 | 7.0 | 0.00 | 0.00 | 0.00 | 96 | 1016.8 |
| 20260508074507 | 60 | 202 | 2.0 | 3.0 | 0.00 | 0.00 | 0.00 | 98 | 1016.8 |
| 20260508074004 | 60 | 157 | 3.0 | 4.0 | 0.00 | 0.00 | 0.00 | 98 | 1016.8 |
| 20260508073506 | 59 | 202 | 0.0 | 1.0 | 0.00 | 0.00 | 0.00 | 99 | 1017.1 |
| 20260508073003 | 59 | 180 | 0.0 | 0.0 | 0.00 | 0.00 | 0.00 | 99 | 1017.1 |
| 20260508072506 | 59 | 180 | 4.0 | 5.0 | 0.00 | 0.00 | 0.00 | 99 | 1017.8 |
| 20260508072004 | 59 | 180 | 5.0 | 6.0 | 0.00 | 0.00 | 0.00 | 99 | 1017.8 |
| 20260508071507 | 59 | 202 | 7.0 | 8.0 | 0.00 | 0.00 | 0.00 | 99 | 1017.8 |
| 20260508071004 | 59 | 225 | 8.0 | 8.0 | 0.00 | 0.00 | 0.00 | 97 | 1017.8 |
| 20260508070506 | 59 | 337 | 3.0 | 3.0 | 0.00 | 0.00 | 0.00 | 97 | 1017.5 |
| 20260508070004 | 59 | 337 | 4.0 | 5.0 | 0.00 | 0.00 | 0.00 | 96 | 1017.5 |
| 20260508065514 | 59 | 360 | 5.0 | 5.0 | 0.00 | 0.00 | 0.00 | 97 | 1017.8 |
| 20260508064507 | 60 | 315 | 1.0 | 4.0 | 0.00 | 0.00 | 0.00 | 93 | 1017.8 |
| 20260508064004 | 60 | 247 | 0.0 | 0.0 | 0.00 | 0.00 | 0.00 | 90 | 1017.8 |
| 20260508063507 | 60 | 247 | 0.0 | 0.0 | 0.00 | 0.00 | 0.00 | 89 | 1017.8 |
| 20260508063004 | 60 | 247 | 0.0 | 0.0 | 0.00 | 0.00 | 0.00 | 89 | 1017.8 |
| 20260508062507 | 60 | 247 | 0.0 | 0.0 | 0.00 | 0.00 | 0.00 | 89 | 1017.5 |
| 20260508062004 | 60 | 247 | 0.0 | 0.0 | 0.00 | 0.00 | 0.00 | 88 | 1017.5 |
| 20260508061507 | 60 | 247 | 0.0 | 1.0 | 0.00 | 0.00 | 0.00 | 88 | 1017.8 |
| 20260508061004 | 60 | 247 | 0.0 | 0.0 | 0.00 | 0.00 | 0.00 | 88 | 1017.8 |
| 20260508060507 | 61 | 247 | 3.0 | 4.0 | 0.00 | 0.00 | 0.00 | 88 | 1017.8 |
| 20260508060005 | 61 | 225 | 4.0 | 4.0 | 0.00 | 0.00 | 0.00 | 85 | 1017.8 |
| 20260508055508 | 60 | 90 | 0.0 | 0.0 | 0.00 | 0.00 | 0.00 | 85 | 1017.8 |
| 20260508055031 | 60 | 90 | 2.0 | 3.0 | 0.00 | 0.00 | 0.00 | 85 | 1017.8 |
| 20260508053508 | 60 | 90 | 2.0 | 3.0 | 0.00 | 0.00 | 0.00 | 84 | 1017.5 |
| 20260508053005 | 60 | 90 | 0.0 | 0.0 | 0.00 | 0.00 | 0.00 | 84 | 1017.5 |
| 20260508052508 | 60 | 90 | 0.0 | 0.0 | 0.00 | 0.00 | 0.00 | 85 | 1017.5 |
| 20260508052008 | 60 | 90 | 0.0 | 0.0 | 0.00 | 0.00 | 0.00 | 85 | 1017.5 |
| 20260508051506 | 60 | 90 | 0.0 | 0.0 | 0.00 | 0.00 | 0.00 | 85 | 1017.5 |
| 20260508050504 | 61 | 90 | 2.0 | 3.0 | 0.00 | 0.00 | 0.00 | 85 | 1017.5 |
| 20260508045508 | 61 | 90 | 5.0 | 5.0 | 0.00 | 0.00 | 0.00 | 83 | 1017.8 |